Location: ?ern� Novina
(50.6762°N, 14.8696°E)
Time: 17:59:42
(UTC+00:00)

DMSP B5D2-2 - Pass Details

Date: 03 March 2021
Orbit: 789 x 807 km, 98.3° (Epoch: 13 April)

Event Time Altitude Azimuth Distance (km) Brightness Sun altitude
Rises 18:05:45 0° 18° (NNE) 3,314 7.2 -13.5°
Reaches altitude 10° 18:08:11 10° 25° (NNE) 2,377 6.4 -13.9°
Maximum altitude 18:13:14 47° 98° (E) 1,053 4.3 -14.7°
Drops below altitude 10° 18:18:14 10° 172° (S) 2,351 6.4 -15.4°
Sets 18:20:38 0° 178° (S) 3,274 7.2 -15.8°
